COSMOS 1275 DEB

Satellite information

Favourite Embed

Satellite Type and Status

DEBRISIN ORBIT

Key statistics

Satellite COSMOS 1275 DEB at a glance.

Uptime

16264

Days in orbit

Revolutions

≈ 14.0

Per day

Orbit

LEO

Low Earth Orbit

Inclination

83.0

Latest

Satellite identification and parameters

Extended collection of information and parameters for COSMOS 1275 DEB.

Object identification

Identified? True

Debris? True

Object name: COSMOS 1275 DEB

International designator: 1981-053JU

Object number (NORAD): 14739

Object ID (CCSDS): 14739

Country: COMMONWEALTH OF INDEPENDENT STATES (CIS)

Current information (Y/N): Y

RCS size: SMALL

Orbital parameters

Period: 102.661 minutes

Inclination: 83.0071 deg

SMA: 7262.671 km

Apoapsis: 926.125 km

Periapsis: 842.948 km

RAAN: 345.1259 deg

Eccentricy: 0.00572631

Argument of periapsis: 29.3277 deg

Mean anomaly: 331.1088 deg

Mean motion: 14.02678613 rev/day

Mean motion (dot): 0.0000352 rev/day2

B* drag term: 0.0022383562 1/REarth

Two-line elements (TLE)

Creation date: Dec. 13, 2025, 5:47 p.m.

Reference frame: TEME

Reference center: EARTH

Epoch: Dec. 13, 2025, 6:04 a.m. UTC

TLE line 0: 0 COSMOS 1275 DEB

TLE line 1: 1 14739U 81053JU 25347.25328963 .00003520 00000-0 22384-2 0 9991

TLE line 2: 2 14739 83.0071 345.1259 0057263 29.3277 331.1088 14.02678613235885

Live tracking on map

Real-time ground track for satellite COSMOS 1275 DEB.

In-orbit conjunctions

A list of the most updated potential collisions computed for object COSMOS 1275 DEB.

Target Orbit TCA Probability of collision Miss distance Type
DELTA 1 DEB SSO 2024-11-14 15:01:40 0.0004301384 793.0 (m) DEBRIS
GREB LEO 2024-08-18 00:18:49 0.0001098495 814.0 (m) PAYLOAD
METEOR 2-11 DEB LEO 2024-06-30 21:43:13 0.0001422367 395.0 (m) DEBRIS

Associated space launch

Navigation satellite providing location information for the Tsiklon-B navigation system

COSMOS 1275 DEB was lifted into orbit during the mission ‘Kosmos-3M | Parus 27’, on board a Kosmos-3M space rocket.

The launch took place on June 4, 1981, 3:41 p.m. from 132/2.

For more information about the launch, click the button.

Launch to space Kosmos-3M | Parus 27
Kosmos-3M | Parus 27

Agency: N/A

Status: Launch Successful

Launch date: June 4, 1981, 3:41 p.m. UTC

Rocket: Kosmos-3M

Launch pad: 132/2

Location: Plesetsk Cosmodrome, Russian Federation

...

Latest news about this satellite

There are no fresh news available about this satellite. Check back as we update our databases every day.


Newsletter sign-up

Weekly statistics, charts and insights to help you stay on top of the space industry.